Regional Weather Roundup
Issued by NWS

Home | Current Version | Previous Version | Text Only | Print | Product List | Glossary On
Versions: 1 2 3 4 5 6 7 8 9 10 11 12 13 14 15 16 17 18 19 20 21 22 23 24 25 26 27 28 29 30 31 32 33 34 35 36 37 38 39 40 41 42 43 44 45 46 47 48 49 50
000
ASUS45 KPSR 302100
RWRAZ

PRELIMINARY ARIZONA REGIONAL HOURLY WEATHER ROUNDUP
NATIONAL WEATHER SERVICE PHOENIX AZ
200 PM MST TUE SEP 30 2014

NOTE: FAIR INDICATES FEW OR NO CLOUDS BELOW 12,000 FEET WITH NO
SIGNIFICANT WEATHER AND/OR OBSTRUCTIONS TO VISIBILITY.

AZZ001>003-036-302200-
NORTHWEST ARIZONA

CITY           SKY/WX    TMP DP  RH WIND       PRES   REMARKS
KINGMAN        SUNNY     79  36  21 SE3       29.92F
$$

AZZ004>008-015-016-018-302200-
NORTH CENTRAL ARIZONA

CITY           SKY/WX    TMP DP  RH WIND       PRES   REMARKS
GRAND CANYON   SUNNY     65  36  34 VRB7      30.06F
PRESCOTT       SUNNY     74  33  22 VRB6      29.99F
FLAGSTAFF      SUNNY     64  37  36 S13       30.08F
PAYSON         SUNNY     72  36  26 VRB5G13   30.02F
$$

AZZ009>014-017-302200-
NORTHEAST ARIZONA

CITY           SKY/WX    TMP DP  RH WIND       PRES   REMARKS
WINSLOW        NOT AVBL
SAINT JOHNS    SUNNY     71  33  24 NW12      30.00F
SHOW LOW       SUNNY     66  32  28 S10       30.07F
$$

AZZ023-302200-
GREATER PHOENIX AREA

CITY           SKY/WX    TMP DP  RH WIND       PRES   REMARKS
PHOENIX        MOSUNNY   88  40  18 SW7       29.79F
GLENDALE       MOSUNNY   86  43  22 VRB6      29.81F
DEER VALLEY    SUNNY     84  37  18 S6        29.81F
SCOTTSDALE     SUNNY     85  43  22 VRB3      29.83F
MESA-GATEWAY   MOSUNNY   82  45  26 NW3       29.84F
CHANDLER       SUNNY     86  41  20 VRB5      29.81F
$$

AZZ027-028-302200-
SOUTHWEST MARICOPA COUNTY AND PINAL COUNTY

CITY           SKY/WX    TMP DP  RH WIND       PRES   REMARKS
CASA GRANDE    SUNNY     86  37  17 CALM      29.82F
GILA BEND      CLEAR     90  36  14 CALM      29.84
$$

AZZ503-504-507>509-302200-
SOUTHEAST ARIZONA

CITY           SKY/WX    TMP DP  RH WIND       PRES   REMARKS
TUCSON         SUNNY     86  29  12 CALM      29.87F
RYAN FIELD       N/A     86  36  16 NW12      29.87F
NOGALES        SUNNY     83  33  16 W12       29.93F
SAFFORD        SUNNY     83  35  18 W13G18    29.86F
$$

AZZ020-021-025-026-031-302200-
SOUTHWEST ARIZONA

CITY           SKY/WX    TMP DP  RH WIND       PRES   REMARKS
YUMA           NOT AVBL
$$

CAZ031-033-041-043-047-048-061-302200-
SOUTHERN CALIFORNIA

CITY           SKY/WX    TMP DP  RH WIND       PRES   REMARKS
DOWNTOWN L.A.  SUNNY     82  58  43 W7        29.79F
L.A. AIRPORT   SUNNY     76  58  53 W12       29.81F
SAN DIEGO      MOSUNNY   77  64  64 W9        29.82F
BURBANK        SUNNY     87  48  25 S12       29.79F
ONTARIO        SUNNY     89  43  20 W13       29.80F
RIVERSIDE      SUNNY     88  45  22 VRB6      29.80F
PALM SPRINGS   SUNNY     95  31  10 N6        29.76F
EL CENTRO NAS  SUNNY     93  38  14 NW3       29.73F
IMPERIAL       SUNNY     93  40  15 W5        29.73F
BLYTHE         SUNNY     90  40  17 VRB3      29.77F
$$

NVZ020-UTZ003-302200-
SOUTHERN NEVADA-UTAH

CITY           SKY/WX    TMP DP  RH WIND       PRES   REMARKS
LAS VEGAS      NOT AVBL
SALT LAKE CITY LGT RAIN  59  46  62 NW14      29.94F
$$

NMZ009-TXZ055-302200-
NEW MEXICO-WEST TEXAS

CITY           SKY/WX    TMP DP  RH WIND       PRES   REMARKS
ALBUQUERQUE    MOSUNNY   74  31  20 NW13      29.95F
EL PASO        MOSUNNY   84  46  26 W9G20     29.87F
$$


........................KEY........................
SKY/WX - SKY CONDITION/WEATHER
TMP    - TEMPERATURE IN FAHRENHEIT
DP     - DEW POINT IN FAHRENHEIT
RH     - RELATIVE HUMIDITY IN PERCENT
WIND   - DIRECTION AND SPEED IN MILES PER HOUR (MPH)
VRB    - VARIABLE WIND DIRECTION
PRES   - MEAN SEA LEVEL PRESSURE IN INCHES OF MERCURY
         F - FALLING PRESSURE   R - RISING PRESSURE
         S - STEADY PRESSURE
VSB    - VISIBILITY IN MILES
HX     - HEAT INDEX IN FAHRENHEIT
WCI    - WIND CHILL INDEX IN FAHRENHEIT
TC     - TEMPERATURE IN CELSIUS WHICH IS ALSO KNOWN AS
         TEMPERATURE IN CENTIGRADE
AFB    - AIR FORCE BASE
         LUKE AFB IS LUKE AIR FORCE BASE
         DAVIS-MONTHAN IS DAVIS-MONTHAN AIR FORCE BASE
NAS    - NAVAL AIR STATION
         EL CENTRO NAS IS EL CENTRO NAVAL AIR STATION
N/A    - NOT AVAILABLE


USA.gov is the U.S. government's official web portal to all federal, state and local government web resources and services.